When you browse on this site, cookies collect data to enhance your experience and personalize the content and advertising you see.
Visit our Privacy Policy to learn more. By continuing to use the site, you agree to this use of cookies and data.
  • En España
  • Lista de países
  • Para 7 días
  • Temperatura del agua
  • Mapa Satelital
  • El tiempo en el mapa
  • Informadores
  • user-avatar
    Iniciar sesión

    Tiempo cada hora Cam Ranh

    Hoy, 19 Febrero, Martes

    Tiempo Temperatura Precipitaciones Viento Presión Humedad
    00:00 +25°C° 0 mm 2 mps 756 mmHg 97%
    01:00 +25°C° 0 mm 2 mps 755 mmHg 97%
    02:00 +24°C° 0 mm 2 mps 755 mmHg 96%
    03:00 +24°C° 0 mm 2 mps 755 mmHg 95%
    04:00 +24°C° 0 mm 2 mps 755 mmHg 95%
    05:00 +24°C° 0 mm 2 mps 755 mmHg 91%
    06:00 +25°C° 0 mm 2 mps 756 mmHg 88%
    07:00 +26°C° 0 mm 1 mps 756 mmHg 84%
    08:00 +28°C° 0 mm 1 mps 756 mmHg 73%
    09:00 +31°C° 0 mm 1 mps 756 mmHg 63%
    10:00 +34°C° 0 mm 1 mps 757 mmHg 53%
    11:00 +34°C° 0 mm 1 mps 756 mmHg 52%
    12:00 +35°C° 0 mm 2 mps 756 mmHg 50%
    13:00 +36°C° 0 mm 3 mps 755 mmHg 49%
    14:00 +35°C° 0 mm 3 mps 755 mmHg 53%
    15:00 +34°C° 0 mm 3 mps 755 mmHg 57%
    16:00 +33°C° 0 mm 3 mps 755 mmHg 61%
    17:00 +30°C° 0 mm 2 mps 755 mmHg 72%
    18:00 +28°C° 0 mm 2 mps 755 mmHg 83%
    19:00 +26°C° 0 mm 1 mps 756 mmHg 94%
    20:00 +25°C° 0 mm 1 mps 756 mmHg 95%
    21:00 +25°C° 0 mm 1 mps 757 mmHg 96%
    22:00 +25°C° 0 mm 1 mps 757 mmHg 97%
    23:00 +25°C° 0.1 mm 2 mps 757 mmHg 97%

    Mañana, 20 Febrero, Miércoles

    Tiempo Temperatura Precipitaciones Viento Presión Humedad
    00:00 +24°C° 0.1 mm 2 mps 757 mmHg 96%
    01:00 +24°C° 0.1 mm 2 mps 757 mmHg 96%
    02:00 +24°C° 0 mm 2 mps 756 mmHg 94%
    03:00 +24°C° 0 mm 2 mps 756 mmHg 92%
    04:00 +24°C° 0 mm 2 mps 756 mmHg 91%
    05:00 +24°C° 0 mm 3 mps 756 mmHg 88%
    06:00 +25°C° 0 mm 3 mps 757 mmHg 86%
    07:00 +25°C° 0 mm 3 mps 757 mmHg 83%
    08:00 +28°C° 0 mm 3 mps 757 mmHg 74%
    09:00 +30°C° 0 mm 3 mps 758 mmHg 64%
    10:00 +34°C° 0 mm 3 mps 758 mmHg 55%
    11:00 +34°C° 0.1 mm 3 mps 757 mmHg 55%
    12:00 +35°C° 0.1 mm 4 mps 757 mmHg 55%
    13:00 +35°C° 0.1 mm 4 mps 756 mmHg 55%
    14:00 +34°C° 0 mm 4 mps 756 mmHg 60%
    15:00 +33°C° 0 mm 4 mps 755 mmHg 64%
    16:00 +32°C° 0 mm 4 mps 755 mmHg 69%
    17:00 +29°C° 0 mm 4 mps 755 mmHg 78%
    18:00 +28°C° 0 mm 3 mps 756 mmHg 87%
    19:00 +26°C° 0 mm 3 mps 756 mmHg 96%
    20:00 +26°C° 0.1 mm 3 mps 756 mmHg 97%
    21:00 +26°C° 0.1 mm 3 mps 757 mmHg 97%
    22:00 +25°C° 0.1 mm 3 mps 757 mmHg 98%
    23:00 +25°C° 0 mm 3 mps 757 mmHg 97%

    Pasado mañana, 21 Febrero, Jueves

    Tiempo Temperatura Precipitaciones Viento Presión Humedad
    00:00 +25°C° 0 mm 2 mps 757 mmHg 97%
    01:00 +24°C° 0 mm 2 mps 756 mmHg 96%
    02:00 +24°C° 0 mm 2 mps 756 mmHg 96%
    03:00 +24°C° 0 mm 2 mps 756 mmHg 95%
    04:00 +24°C° 0 mm 2 mps 756 mmHg 95%
    05:00 +25°C° 0 mm 2 mps 756 mmHg 93%
    06:00 +25°C° 0 mm 2 mps 756 mmHg 91%
    07:00 +25°C° 0 mm 2 mps 757 mmHg 88%
    08:00 +28°C° 0 mm 3 mps 757 mmHg 78%
    09:00 +30°C° 0 mm 3 mps 757 mmHg 68%
    10:00 +34°C° 0 mm 3 mps 758 mmHg 57%
    11:00 +34°C° 0 mm 3 mps 757 mmHg 54%
    12:00 +35°C° 0 mm 4 mps 756 mmHg 51%
    13:00 +35°C° 0 mm 4 mps 755 mmHg 48%
    14:00 +34°C° 0 mm 4 mps 754 mmHg 53%
    15:00 +33°C° 0 mm 4 mps 754 mmHg 57%
    16:00 +32°C° 0 mm 4 mps 753 mmHg 61%
    17:00 +29°C° 0 mm 3 mps 754 mmHg 73%
    18:00 +27°C° 0 mm 3 mps 754 mmHg 84%
    19:00 +25°C° 0 mm 2 mps 755 mmHg 95%
    20:00 +25°C° 0 mm 2 mps 755 mmHg 96%
    21:00 +25°C° 0 mm 2 mps 756 mmHg 97%
    22:00 +25°C° 0 mm 2 mps 756 mmHg 97%
    23:00 +25°C° 0 mm 2 mps 756 mmHg 97%

    22 Febrero, Viernes

    Tiempo Temperatura Precipitaciones Viento Presión Humedad
    00:00 +24°C° 0 mm 1 mps 755 mmHg 97%
    01:00 +24°C° 0 mm 1 mps 755 mmHg 97%
    02:00 +24°C° 0 mm 1 mps 755 mmHg 96%
    03:00 +24°C° 0 mm 1 mps 754 mmHg 96%
    04:00 +23°C° 0 mm 1 mps 754 mmHg 96%
    05:00 +24°C° 0 mm 1 mps 755 mmHg 93%
    06:00 +25°C° 0 mm 1 mps 755 mmHg 90%
    07:00 +25°C° 0 mm 1 mps 756 mmHg 86%
    08:00 +28°C° 0 mm 1 mps 756 mmHg 76%
    09:00 +30°C° 0 mm 2 mps 756 mmHg 65%
    10:00 +34°C° 0 mm 2 mps 757 mmHg 55%
    11:00 +34°C° 0 mm 2 mps 756 mmHg 52%
    12:00 +35°C° 0 mm 3 mps 755 mmHg 49%
    13:00 +35°C° 0 mm 3 mps 754 mmHg 47%
    14:00 +34°C° 0 mm 3 mps 754 mmHg 51%
    15:00 +33°C° 0 mm 3 mps 753 mmHg 55%
    16:00 +31°C° 0 mm 3 mps 753 mmHg 59%
    17:00 +29°C° 0 mm 3 mps 753 mmHg 70%
    18:00 +27°C° 0 mm 2 mps 754 mmHg 81%
    19:00 +25°C° 0 mm 2 mps 754 mmHg 92%
    20:00 +24°C° 0 mm 2 mps 755 mmHg 93%
    21:00 +24°C° 0 mm 2 mps 755 mmHg 94%
    22:00 +24°C° 0 mm 2 mps 756 mmHg 95%
    23:00 +24°C° 0 mm 2 mps 755 mmHg 95%

    23 Febrero, Sábado

    Tiempo Temperatura Precipitaciones Viento Presión Humedad
    00:00 +23°C° 0 mm 1 mps 755 mmHg 94%
    01:00 +23°C° 0 mm 1 mps 755 mmHg 93%
    02:00 +23°C° 0 mm 1 mps 755 mmHg 92%
    03:00 +23°C° 0 mm 2 mps 754 mmHg 92%
    04:00 +21°C° 0 mm 2 mps 754 mmHg 91%
    05:00 +23°C° 0 mm 2 mps 755 mmHg 88%
    06:00 +24°C° 0 mm 2 mps 755 mmHg 85%
    07:00 +24°C° 0 mm 2 mps 756 mmHg 82%
    08:00 +27°C° 0 mm 2 mps 756 mmHg 73%
    09:00 +29°C° 0 mm 2 mps 756 mmHg 64%
    10:00 +32°C° 0 mm 2 mps 756 mmHg 54%
    11:00 +34°C° 0 mm 3 mps 755 mmHg 53%
    12:00 +34°C° 0 mm 3 mps 754 mmHg 51%
    13:00 +35°C° 0 mm 3 mps 754 mmHg 50%
    14:00 +34°C° 0 mm 3 mps 753 mmHg 54%
    15:00 +33°C° 0 mm 3 mps 753 mmHg 59%
    16:00 +30°C° 0 mm 3 mps 752 mmHg 64%
    17:00 +29°C° 0 mm 3 mps 753 mmHg 74%
    18:00 +27°C° 0 mm 2 mps 753 mmHg 83%
    19:00 +25°C° 0 mm 2 mps 754 mmHg 93%
    20:00 +24°C° 0 mm 2 mps 754 mmHg 94%
    21:00 +24°C° 0 mm 2 mps 755 mmHg 95%
    22:00 +24°C° 0 mm 2 mps 755 mmHg 96%
    23:00 +23°C° 0 mm 2 mps 755 mmHg 96%

    24 Febrero, Domingo

    Tiempo Temperatura Precipitaciones Viento Presión Humedad
    00:00 +23°C° 0 mm 2 mps 755 mmHg 95%
    01:00 +23°C° 0 mm 1 mps 754 mmHg 95%
    02:00 +23°C° 0 mm 1 mps 754 mmHg 93%
    03:00 +21°C° 0 mm 2 mps 754 mmHg 91%
    04:00 +21°C° 0 mm 2 mps 754 mmHg 90%
    05:00 +23°C° 0 mm 2 mps 755 mmHg 85%
    06:00 +24°C° 0 mm 2 mps 755 mmHg 81%
    07:00 +24°C° 0 mm 2 mps 756 mmHg 77%
    08:00 +27°C° 0 mm 2 mps 756 mmHg 68%
    09:00 +30°C° 0 mm 2 mps 756 mmHg 59%
    10:00 +32°C° 0 mm 2 mps 756 mmHg 49%
    11:00 +34°C° 0 mm 3 mps 755 mmHg 48%
    12:00 +34°C° 0 mm 3 mps 754 mmHg 46%
    13:00 +35°C° 0 mm 4 mps 753 mmHg 44%
    14:00 +34°C° 0 mm 3 mps 753 mmHg 49%
    15:00 +33°C° 0 mm 3 mps 752 mmHg 53%
    16:00 +31°C° 0 mm 3 mps 752 mmHg 58%
    17:00 +28°C° 0 mm 3 mps 753 mmHg 68%
    18:00 +26°C° 0 mm 2 mps 753 mmHg 79%
    19:00 +24°C° 0 mm 2 mps 754 mmHg 89%
    20:00 +24°C° 0 mm 1 mps 754 mmHg 90%
    21:00 +23°C° 0 mm 1 mps 754 mmHg 92%
    22:00 +23°C° 0 mm 1 mps 755 mmHg 93%
    23:00 +23°C° 0 mm 2 mps 755 mmHg 88%
    Mostrar más